Location: ????????
(55.0559°N, 39.1270°E)
Time: 01:35:20
(UTC+00:00)

Cosmos 1447 Rocket - Pass Details

Date: 15 November 2025
Orbit: 953 x 995 km, 82.9° (Epoch: 12 December)

Event Time Altitude Azimuth Distance (km) Brightness Sun altitude
Rises 02:47:40 0° 196° (SSW) 3,667 7.4 -18.0°
Reaches altitude 10° 02:50:10 10° 198° (SSW) 2,729 6.7 -17.6°
Maximum altitude 02:56:26 73° 284° (WNW) 1,035 4.4 -16.7°
Drops below altitude 10° 03:02:48 10° 9° (N) 2,770 6.9 -15.8°
Sets 03:05:21 0° 12° (NNE) 3,725 7.6 -15.5°
